Zurück zum Katalog

STARLINK-37413

AktivKommunikationSSO
NORAD 68789·PAYLOAD·🇺🇸 United States

Gestartet Apr 19, 2026 von Vandenberg Space Force Base

Loading…

Nächste Überflüge (nächste 24 Stunden)

TLE

AktuellSource: CelesTrak SupGP

Epoche: Sep 15, 2026, 04:06 UTC

1 68789C 26086Z   26258.17131944 -.00060618  00000+0 -18819-2 0  2582
2 68789  97.2844 293.7272 0001323  86.5883 203.5235 15.33467763    19

Verfolge STARLINK-37413 in Echtzeit mit AllMySat

Download on the App Store